| time (UTC) | temp F | wind direction | speed MPH | gust MPH | rain 1hr in | rain 24hr in | rain mn in | humidity % | barometer mb |
| 20260507171552 | 67 | 0 | 0.0 | 3.0 | 0.00 | 0.00 | 0.00 | 79 | 1016.2 |
| 20260507170052 | 65 | 0 | 0.0 | 3.0 | 0.00 | 0.00 | 0.00 | 82 | 1016.3 |
| 20260507164605 | 64 | 0 | 0.0 | 3.0 | 0.00 | 0.00 | 0.00 | 83 | 1016.3 |
| 20260507163051 | 64 | 271 | 0.0 | 1.0 | 0.00 | 0.00 | 0.00 | 83 | 1016.5 |
| 20260507161554 | 65 | 0 | 0.0 | 2.0 | 0.00 | 0.00 | 0.00 | 82 | 1016.5 |
| 20260507160054 | 65 | 0 | 0.0 | 1.0 | 0.00 | 0.00 | 0.00 | 82 | 1016.5 |
| 20260507154551 | 64 | 0 | 0.0 | 1.0 | 0.00 | 0.00 | 0.00 | 83 | 1016.5 |
| 20260507153046 | 64 | 0 | 0.0 | 1.0 | 0.00 | 0.00 | 0.00 | 84 | 1016.4 |
| 20260507151552 | 63 | 0 | 0.0 | 1.0 | 0.00 | 0.00 | 0.00 | 84 | 1016.3 |
| 20260507150049 | 63 | 0 | 0.0 | 2.0 | 0.00 | 0.00 | 0.00 | 84 | 1016.3 |
| 20260507144552 | 63 | 0 | 0.0 | 2.0 | 0.00 | 0.00 | 0.00 | 84 | 1016.2 |
| 20260507143107 | 63 | 0 | 0.0 | 1.0 | 0.00 | 0.00 | 0.00 | 85 | 1016.2 |
| 20260507141607 | 63 | 0 | 0.0 | 1.0 | 0.00 | 0.00 | 0.00 | 85 | 1016.0 |
| 20260507140053 | 63 | 0 | 0.0 | 1.0 | 0.00 | 0.00 | 0.00 | 86 | 1015.9 |
| 20260507134551 | 62 | 0 | 0.0 | 0.0 | 0.00 | 0.00 | 0.00 | 86 | 1015.8 |
| 20260507133052 | 62 | 0 | 0.0 | 2.0 | 0.00 | 0.00 | 0.00 | 86 | 1015.8 |
| 20260507131559 | 62 | 0 | 0.0 | 0.0 | 0.00 | 0.00 | 0.00 | 86 | 1015.8 |
| 20260507130051 | 62 | 0 | 0.0 | 0.0 | 0.00 | 0.00 | 0.00 | 86 | 1015.7 |
| 20260507124547 | 62 | 0 | 0.0 | 0.0 | 0.00 | 0.00 | 0.00 | 86 | 1015.6 |
| 20260507123108 | 62 | 0 | 0.0 | 0.0 | 0.00 | 0.00 | 0.00 | 86 | 1015.5 |
| 20260507121552 | 62 | 0 | 0.0 | 2.0 | 0.00 | 0.00 | 0.00 | 86 | 1015.5 |
| 20260507120047 | 62 | 0 | 0.0 | 2.0 | 0.00 | 0.00 | 0.00 | 86 | 1015.4 |
| 20260507114553 | 62 | 0 | 0.0 | 2.0 | 0.00 | 0.00 | 0.00 | 87 | 1015.4 |
| 20260507113052 | 62 | 0 | 0.0 | 1.0 | 0.00 | 0.00 | 0.00 | 87 | 1015.3 |
| 20260507111548 | 63 | 0 | 0.0 | 2.0 | 0.00 | 0.00 | 0.00 | 87 | 1015.4 |
| 20260507110052 | 62 | 0 | 0.0 | 0.0 | 0.00 | 0.00 | 0.00 | 87 | 1015.5 |
| 20260507104551 | 62 | 0 | 0.0 | 0.0 | 0.00 | 0.00 | 0.00 | 87 | 1015.6 |
| 20260507103050 | 62 | 0 | 0.0 | 0.0 | 0.00 | 0.00 | 0.00 | 87 | 1015.7 |
| 20260507101551 | 62 | 0 | 0.0 | 0.0 | 0.00 | 0.00 | 0.00 | 87 | 1015.8 |
| 20260507100057 | 62 | 0 | 0.0 | 0.0 | 0.00 | 0.00 | 0.00 | 87 | 1015.9 |
| 20260507094553 | 62 | 0 | 0.0 | 0.0 | 0.00 | 0.00 | 0.00 | 87 | 1016.0 |
| 20260507093048 | 62 | 0 | 0.0 | 0.0 | 0.00 | 0.00 | 0.00 | 87 | 1016.1 |
| 20260507091551 | 62 | 0 | 0.0 | 0.0 | 0.00 | 0.00 | 0.00 | 88 | 1016.2 |
| 20260507090059 | 62 | 0 | 0.0 | 1.0 | 0.00 | 0.00 | 0.00 | 88 | 1016.3 |
| 20260507084557 | 61 | 0 | 0.0 | 0.0 | 0.00 | 0.00 | 0.00 | 88 | 1016.5 |
| 20260507083050 | 61 | 0 | 0.0 | 0.0 | 0.00 | 0.00 | 0.00 | 89 | 1016.5 |
| 20260507081554 | 61 | 0 | 0.0 | 0.0 | 0.00 | 0.00 | 0.00 | 88 | 1016.7 |
| 20260507080112 | 61 | 0 | 0.0 | 0.0 | 0.00 | 0.00 | 0.00 | 88 | 1016.8 |
| 20260507074547 | 61 | 0 | 0.0 | 0.0 | 0.00 | 0.00 | 0.00 | 88 | 1016.8 |
| 20260507073050 | 61 | 0 | 0.0 | 0.0 | 0.00 | 0.00 | 0.00 | 88 | 1016.9 |
| 20260507071549 | 61 | 0 | 0.0 | 0.0 | 0.00 | 0.00 | 0.00 | 87 | 1016.7 |
| 20260507070054 | 61 | 0 | 0.0 | 0.0 | 0.00 | 0.00 | 0.00 | 87 | 1016.8 |
| 20260507064619 | 61 | 0 | 0.0 | 0.0 | 0.00 | 0.00 | 0.00 | 87 | 1017.0 |
| 20260507063053 | 61 | 0 | 0.0 | 0.0 | 0.00 | 0.00 | 0.00 | 87 | 1017.1 |
| 20260507061549 | 62 | 0 | 0.0 | 0.0 | 0.00 | 0.00 | 0.00 | 86 | 1017.0 |
| 20260507060110 | 62 | 0 | 0.0 | 0.0 | 0.00 | 0.00 | 0.00 | 86 | 1016.9 |
| 20260507054552 | 63 | 0 | 0.0 | 0.0 | 0.00 | 0.00 | 0.00 | 86 | 1016.8 |
| 20260507053047 | 63 | 0 | 0.0 | 1.0 | 0.00 | 0.00 | 0.00 | 86 | 1016.9 |
| 20260507051603 | 63 | 0 | 0.0 | 1.0 | 0.00 | 0.00 | 0.00 | 86 | 1016.9 |
| 20260507050049 | 63 | 0 | 0.0 | 1.0 | 0.00 | 0.00 | 0.00 | 86 | 1017.0 |
| 20260507044550 | 63 | 0 | 0.0 | 1.0 | 0.00 | 0.00 | 0.00 | 86 | 1017.0 |
| 20260507043047 | 63 | 0 | 0.0 | 1.0 | 0.00 | 0.00 | 0.00 | 85 | 1016.8 |
| 20260507041547 | 64 | 0 | 0.0 | 1.0 | 0.00 | 0.00 | 0.00 | 85 | 1016.8 |
| 20260507040051 | 64 | 0 | 0.0 | 2.0 | 0.00 | 0.00 | 0.00 | 86 | 1016.7 |
| 20260507034551 | 64 | 0 | 0.0 | 2.0 | 0.00 | 0.00 | 0.00 | 85 | 1016.6 |
| 20260507033050 | 64 | 0 | 0.0 | 2.0 | 0.00 | 0.00 | 0.00 | 84 | 1016.5 |
| 20260507031545 | 64 | 0 | 0.0 | 0.0 | 0.00 | 0.00 | 0.00 | 82 | 1016.4 |
| 20260507030052 | 65 | 0 | 0.0 | 0.0 | 0.00 | 0.00 | 0.00 | 81 | 1016.3 |
| 20260507024550 | 65 | 0 | 0.0 | 1.0 | 0.00 | 0.00 | 0.00 | 80 | 1016.2 |
| 20260507023053 | 66 | 0 | 0.0 | 1.0 | 0.00 | 0.00 | 0.00 | 79 | 1016.0 |
| 20260507021553 | 67 | 0 | 0.0 | 4.0 | 0.00 | 0.00 | 0.00 | 77 | 1016.0 |
| 20260507020103 | 68 | 0 | 0.0 | 2.0 | 0.00 | 0.00 | 0.00 | 77 | 1016.0 |
| 20260507014559 | 69 | 0 | 0.0 | 2.0 | 0.00 | 0.00 | 0.00 | 76 | 1016.0 |
| 20260507013046 | 69 | 0 | 0.0 | 3.0 | 0.00 | 0.00 | 0.00 | 76 | 1016.0 |
| 20260507011551 | 69 | 0 | 0.0 | 4.0 | 0.00 | 0.00 | 0.00 | 76 | 1015.9 |
| 20260507010100 | 70 | 0 | 0.0 | 4.0 | 0.00 | 0.00 | 0.00 | 75 | 1015.9 |
| 20260507004549 | 69 | 0 | 0.0 | 7.0 | 0.00 | 0.00 | 0.00 | 75 | 1015.9 |
| 20260507003052 | 69 | 260 | 0.0 | 6.0 | 0.00 | 0.00 | 0.00 | 76 | 1015.9 |
| 20260507001555 | 69 | 259 | 1.0 | 8.0 | 0.00 | 0.00 | 0.00 | 76 | 1015.7 |
| 20260507000053 | 69 | 262 | 2.0 | 8.0 | 0.00 | 0.00 | 0.00 | 75 | 1015.7 |
| 20260506234550 | 70 | 252 | 1.0 | 8.0 | 0.00 | 0.00 | 0.00 | 74 | 1015.7 |
| 20260506233053 | 70 | 257 | 0.0 | 8.0 | 0.00 | 0.00 | 0.00 | 74 | 1015.7 |
| 20260506231606 | 70 | 260 | 1.0 | 8.0 | 0.00 | 0.00 | 0.00 | 72 | 1015.6 |
| 20260506230109 | 69 | 0 | 1.0 | 8.0 | 0.00 | 0.00 | 0.00 | 73 | 1015.7 |
| 20260506224550 | 69 | 0 | 1.0 | 7.0 | 0.00 | 0.00 | 0.00 | 74 | 1015.9 |
| 20260506223048 | 70 | 258 | 1.0 | 8.0 | 0.00 | 0.00 | 0.00 | 71 | 1016.1 |
| 20260506221609 | 70 | 0 | 1.0 | 10.0 | 0.00 | 0.00 | 0.00 | 73 | 1016.2 |
| 20260506220105 | 70 | 263 | 1.0 | 8.0 | 0.00 | 0.00 | 0.00 | 71 | 1016.4 |
| 20260506214551 | 70 | 0 | 1.0 | 8.0 | 0.00 | 0.00 | 0.00 | 73 | 1016.6 |
| 20260506213105 | 69 | 265 | 3.0 | 10.0 | 0.00 | 0.00 | 0.00 | 72 | 1016.6 |
| 20260506211553 | 69 | 240 | 2.0 | 10.0 | 0.00 | 0.00 | 0.00 | 70 | 1016.6 |
| 20260506210056 | 69 | 0 | 2.0 | 12.0 | 0.00 | 0.00 | 0.00 | 70 | 1016.8 |
| 20260506204605 | 69 | 269 | 1.0 | 8.0 | 0.00 | 0.00 | 0.00 | 71 | 1016.7 |
| 20260506203053 | 69 | 238 | 3.0 | 9.0 | 0.00 | 0.00 | 0.00 | 72 | 1016.8 |
| 20260506201549 | 69 | 265 | 2.0 | 10.0 | 0.00 | 0.00 | 0.00 | 71 | 1016.9 |
| 20260506200048 | 69 | 266 | 1.0 | 9.0 | 0.00 | 0.00 | 0.00 | 72 | 1017.1 |
| 20260506194549 | 68 | 0 | 1.0 | 7.0 | 0.00 | 0.00 | 0.00 | 74 | 1017.3 |
| 20260506193055 | 68 | 257 | 2.0 | 7.0 | 0.00 | 0.00 | 0.00 | 72 | 1017.4 |
| 20260506191553 | 67 | 0 | 1.0 | 7.0 | 0.00 | 0.00 | 0.00 | 72 | 1017.4 |
| 20260506190051 | 68 | 251 | 0.0 | 7.0 | 0.00 | 0.00 | 0.00 | 71 | 1017.5 |
| 20260506184612 | 66 | 0 | 1.0 | 7.0 | 0.00 | 0.00 | 0.00 | 73 | 1017.7 |
| 20260506183049 | 66 | 249 | 2.0 | 5.0 | 0.00 | 0.00 | 0.00 | 71 | 1017.9 |
| 20260506181547 | 67 | 246 | 0.0 | 7.0 | 0.00 | 0.00 | 0.00 | 70 | 1017.9 |
| 20260506180048 | 67 | 241 | 0.0 | 5.0 | 0.00 | 0.00 | 0.00 | 71 | 1017.9 |
| 20260506174549 | 67 | 230 | 0.0 | 3.0 | 0.00 | 0.00 | 0.00 | 71 | 1018.0 |
| 20260506173052 | 66 | 0 | 1.0 | 4.0 | 0.00 | 0.00 | 0.00 | 70 | 1018.2 |